Location: St Paul
(33.4390°N, 83.7350°W)
Time: 11:38:47
(UTC-04:00)

Cosmos 1408 Rocket - Pass Details

Date: 06 October 2017
Orbit: 601 x 631 km, 82.6° (Epoch: 22 October)

Event Time Altitude Azimuth Distance (km) Brightness Sun altitude
Rises 20:19:07 0° 1° (N) 2,886 7.0 -14.8°
Reaches altitude 10° 20:21:26 10° 9° (N) 1,982 6.1 -15.2°
Maximum altitude 20:25:36 43° 81° (E) 880 3.9 -16.1°
Enters shadow 20:28:55 15° 148° (SSE) 1,660 5.4 -16.8°
